GW1914 Weather Reports


Display with metric or nautical units.
time (UTC)temp
F
wind
direction
speed
MPH
gust
MPH
rain 1hr
in
rain 24hr
in
rain mn
in
humidity
%
barometer
mb
20260505173039 63 211 2.0 5.0 0.00 0.00 0.00 41 1016.1
20260505172537 63 202 3.0 5.0 0.00 0.00 0.00 41 1016.1
20260505172025 63 202 2.0 4.0 0.00 0.00 0.00 44 1016.1
20260505171523 62 187 3.0 5.0 0.00 0.00 0.00 43 1016.2
20260505171034 62 216 4.0 5.0 0.00 0.00 0.00 43 1016.2
20260505170522 63 188 3.0 5.0 0.00 0.00 0.00 45 1016.3
20260505170023 63 179 2.0 4.0 0.00 0.00 0.00 39 1016.3
20260505165529 62 215 2.0 4.0 0.00 0.00 0.00 40 1016.2
20260505165018 63 150 1.0 6.0 0.00 0.00 0.00 39 1016.2
20260505164547 62 248 1.0 6.0 0.00 0.00 0.00 43 1016.3
20260505164028 61 214 2.0 4.0 0.00 0.00 0.00 44 1016.3
20260505163536 60 198 2.0 4.0 0.00 0.00 0.00 48 1016.4
20260505163034 60 184 3.0 5.0 0.00 0.00 0.00 49 1016.3
20260505162523 60 214 3.0 5.0 0.00 0.00 0.00 47 1016.3
20260505162032 60 221 3.0 4.0 0.00 0.00 0.00 46 1016.4
20260505161528 61 223 1.0 3.0 0.00 0.00 0.00 46 1016.4
20260505161035 60 233 1.0 3.0 0.00 0.00 0.00 46 1016.4
20260505160525 59 239 1.0 3.0 0.00 0.00 0.00 51 1016.4
20260505153047 56 208 1.0 2.0 0.00 0.00 0.00 64 1016.4
20260505152525 56 166 1.0 3.0 0.00 0.00 0.00 64 1016.4
20260505152016 57 227 1.0 3.0 0.00 0.00 0.00 57 1016.4
20260505151542 57 82 1.0 3.0 0.00 0.00 0.00 61 1016.3
20260505151026 56 342 0.0 0.0 0.00 0.00 0.00 66 1016.3
20260505150535 54 181 0.0 0.0 0.00 0.00 0.00 71 1016.2
20260505140520 50 259 0.0 3.0 0.00 0.00 0.00 76 1016.1
20260505125019 47 263 2.0 4.0 0.00 0.00 0.00 85 1015.2
20260505124538 47 257 2.0 4.0 0.00 0.00 0.00 85 1015.0
20260505124024 47 256 1.0 3.0 0.00 0.00 0.00 84 1015.0
20260505123536 47 246 1.0 4.0 0.00 0.00 0.00 84 1015.0
20260505123031 47 236 2.0 4.0 0.00 0.00 0.00 84 1014.9
20260505122519 47 264 2.0 3.0 0.00 0.00 0.00 84 1014.8
20260505122029 47 271 1.0 2.0 0.00 0.00 0.00 84 1014.8
20260505121524 47 254 0.0 0.0 0.00 0.00 0.00 84 1014.8
20260505121031 47 234 0.0 0.0 0.00 0.00 0.00 85 1014.8
20260505120527 47 232 0.0 2.0 0.00 0.00 0.00 84 1014.6
20260505120023 47 261 0.0 3.0 0.00 0.00 0.00 83 1014.7
20260505115530 48 263 2.0 3.0 0.00 0.00 0.00 82 1014.6
20260505115020 48 258 0.0 0.0 0.00 0.00 0.00 82 1014.6
20260505114531 48 258 0.0 0.0 0.00 0.00 0.00 83 1014.4
20260505114029 48 258 0.0 2.0 0.00 0.00 0.00 83 1014.4
20260505113536 48 258 0.0 4.0 0.00 0.00 0.00 83 1014.4
20260505113034 48 259 3.0 4.0 0.00 0.00 0.00 83 1014.4
20260505112522 48 265 2.0 4.0 0.00 0.00 0.00 83 1014.5
20260505112031 49 265 0.0 0.0 0.00 0.00 0.00 81 1014.4
20260505111534 49 266 0.0 0.0 0.00 0.00 0.00 81 1014.5
20260505111015 49 269 0.0 0.0 0.00 0.00 0.00 81 1014.3
20260505110529 49 273 0.0 0.0 0.00 0.00 0.00 82 1014.4
20260505102034 50 288 2.0 4.0 0.00 0.00 0.00 77 1014.2
20260505101531 50 258 0.0 1.0 0.00 0.00 0.00 76 1014.1
20260505101021 50 269 0.0 3.0 0.00 0.00 0.00 78 1014.2
20260505100531 50 251 2.0 4.0 0.00 0.00 0.00 79 1014.1
20260505100034 50 271 1.0 3.0 0.00 0.00 0.00 79 1013.9
20260505095537 50 252 1.0 3.0 0.00 0.00 0.00 79 1013.8
20260505095022 50 247 0.0 3.0 0.00 0.00 0.00 80 1013.7
20260505094518 50 269 2.0 3.0 0.00 0.00 0.00 80 1013.7
20260505094032 50 269 0.0 3.0 0.00 0.00 0.00 79 1013.6
20260505093521 50 254 1.0 3.0 0.00 0.00 0.00 80 1013.5
20260505093018 50 263 0.0 4.0 0.00 0.00 0.00 81 1013.5
20260505092530 50 265 2.0 4.0 0.00 0.00 0.00 80 1013.5
20260505092017 50 272 3.0 4.0 0.00 0.00 0.00 81 1013.4
20260505091550 51 265 2.0 4.0 0.00 0.00 0.00 82 1013.4
20260505091025 50 244 1.0 4.0 0.00 0.00 0.00 79 1013.3
20260505090533 50 272 2.0 4.0 0.00 0.00 0.00 79 1013.4
20260505090048 50 267 2.0 4.0 0.00 0.00 0.00 79 1013.3
20260505085520 51 266 2.0 4.0 0.00 0.00 0.00 79 1013.2
20260505085028 51 246 0.0 0.0 0.00 0.00 0.00 79 1013.2
20260505084533 51 266 0.0 0.0 0.00 0.00 0.00 79 1013.2
20260505084034 51 284 0.0 4.0 0.00 0.00 0.00 79 1013.2
20260505083528 51 284 1.0 4.0 0.00 0.00 0.00 79 1013.1
20260505083035 51 240 0.0 3.0 0.00 0.00 0.00 78 1013.2
20260505082532 51 250 1.0 3.0 0.00 0.00 0.00 77 1013.1
20260505082025 52 275 1.0 3.0 0.00 0.00 0.00 78 1013.0
20260505081525 52 258 0.0 0.0 0.00 0.00 0.00 77 1013.1
20260505081029 53 259 0.0 0.0 0.00 0.00 0.00 74 1013.0
20260505080541 53 238 0.0 1.0 0.00 0.00 0.00 74 1013.0
20260505080040 53 302 0.0 4.0 0.00 0.00 0.00 71 1013.0
20260505075524 53 300 2.0 4.0 0.00 0.00 0.00 71 1013.0
20260505075032 53 267 3.0 4.0 0.00 0.00 0.00 73 1013.0
20260505074528 53 255 1.0 4.0 0.00 0.00 0.00 76 1012.9
20260505074034 53 263 2.0 4.0 0.00 0.00 0.00 73 1012.9
20260505073527 53 246 3.0 4.0 0.00 0.00 0.00 75 1012.9
20260505073022 53 261 1.0 4.0 0.00 0.00 0.00 76 1012.9
20260505072530 53 263 0.0 3.0 0.00 0.00 0.00 77 1012.8
20260505072023 53 250 1.0 4.0 0.00 0.00 0.00 76 1012.7
20260505071526 53 252 2.0 4.0 0.00 0.00 0.00 74 1012.6
20260505071028 53 242 2.0 6.0 0.00 0.00 0.00 73 1012.6
20260505070538 53 238 2.0 6.0 0.00 0.00 0.00 75 1012.4
20260505070034 53 239 3.0 5.0 0.00 0.00 0.00 75 1012.4
20260505065520 53 241 2.0 5.0 0.00 0.00 0.00 74 1012.2
20260505065031 53 260 2.0 7.0 0.00 0.00 0.00 73 1012.1
20260505064634 54 246 3.0 7.0 0.00 0.00 0.00 74 1012.1
20260505064034 54 244 3.0 6.0 0.00 0.00 0.00 76 1012.1
20260505063522 54 248 3.0 7.0 0.00 0.00 0.00 75 1012.1
20260505063023 55 248 4.0 7.0 0.00 0.00 0.00 72 1012.0
20260505062527 55 258 3.0 5.0 0.00 0.00 0.00 70 1012.1
20260505062037 55 258 3.0 5.0 0.00 0.00 0.00 69 1012.1
20260505061542 55 230 3.0 5.0 0.00 0.00 0.00 71 1012.0
20260505061023 55 242 3.0 4.0 0.00 0.00 0.00 71 1012.1
20260505060539 55 250 2.0 4.0 0.00 0.00 0.00 70 1012.1
20260505060031 55 247 0.0 5.0 0.00 0.00 0.00 70 1012.1
20260505055521 56 266 3.0 7.0 0.00 0.00 0.00 68 1012.1
20260505055031 56 242 3.0 5.0 0.00 0.00 0.00 68 1012.0
20260505054530 56 252 2.0 6.0 0.00 0.00 0.00 69 1012.0
20260505054037 57 268 3.0 4.0 0.00 0.00 0.00 68 1011.9
20260505053523 57 258 2.0 4.0 0.00 0.00 0.00 65 1011.9
20260505053020 58 229 2.0 6.0 0.00 0.00 0.00 64 1011.9
20260505052529 58 250 2.0 6.0 0.00 0.00 0.00 66 1011.6
20260505052017 59 247 1.0 4.0 0.00 0.00 0.00 65 1011.5
20260505051536 60 250 2.0 4.0 0.00 0.00 0.00 60 1011.5
20260505051027 59 239 1.0 4.0 0.00 0.00 0.00 61 1011.5
20260505050533 58 236 2.0 4.0 0.00 0.00 0.00 63 1011.6
20260505041537 61 74 3.0 6.0 0.00 0.00 0.00 51 1011.1
20260505041024 61 244 2.0 5.0 0.00 0.00 0.00 57 1011.1
20260505040533 61 252 1.0 4.0 0.00 0.00 0.00 56 1011.0
20260505040032 61 259 1.0 5.0 0.00 0.00 0.00 59 1011.0
20260505035517 63 243 2.0 5.0 0.00 0.00 0.00 54 1010.9
20260505035028 64 253 2.0 4.0 0.00 0.00 0.00 52 1010.8
20260505034522 66 233 1.0 3.0 0.00 0.00 0.00 48 1010.7
20260505034020 69 52 0.0 2.0 0.00 0.00 0.00 35 1010.6
20260505033531 69 50 1.0 2.0 0.00 0.00 0.00 35 1010.5
20260505033033 69 32 1.0 2.0 0.00 0.00 0.00 34 1010.4
20260505032533 70 41 1.0 3.0 0.00 0.00 0.00 34 1010.3
20260505032024 70 48 2.0 5.0 0.00 0.00 0.00 33 1010.3
20260505031539 70 51 3.0 5.0 0.00 0.00 0.00 33 1010.3
20260505031025 71 48 2.0 5.0 0.00 0.00 0.00 33 1010.3
20260505030536 71 20 2.0 4.0 0.00 0.00 0.00 32 1010.3
20260505030030 71 60 2.0 8.0 0.00 0.00 0.00 32 1010.4
20260505025525 71 38 4.0 10.0 0.00 0.00 0.00 31 1010.2
20260505025028 72 5 4.0 10.0 0.00 0.00 0.00 31 1010.2
20260505024549 72 360 3.0 9.0 0.00 0.00 0.00 31 1010.0
20260505024034 72 22 3.0 11.0 0.00 0.00 0.00 31 1010.0
20260505023530 72 5 5.0 9.0 0.00 0.00 0.00 30 1009.9
20260505023036 72 15 5.0 11.0 0.00 0.00 0.00 30 1010.0
20260505022538 72 11 6.0 12.0 0.00 0.00 0.00 30 1010.0
20260505022027 73 21 8.0 12.0 0.00 0.00 0.00 29 1010.0
20260505021542 73 342 5.0 10.0 0.00 0.00 0.00 30 1010.1
20260505021030 73 299 5.0 11.0 0.00 0.00 0.00 29 1010.1
20260505020521 73 351 6.0 11.0 0.00 0.00 0.00 28 1010.0
20260505020044 73 24 5.0 11.0 0.00 0.00 0.00 28 1010.1
20260505015530 73 5 6.0 11.0 0.00 0.00 0.00 28 1010.1
20260505015036 74 344 4.0 11.0 0.00 0.00 0.00 27 1010.1
20260505014535 74 355 5.0 12.0 0.00 0.00 0.00 26 1010.1
20260505014026 74 13 6.0 12.0 0.00 0.00 0.00 26 1010.1
20260505013535 74 5 6.0 11.0 0.00 0.00 0.00 26 1010.1
20260505013029 74 10 4.0 12.0 0.00 0.00 0.00 26 1010.1
20260505012525 74 9 7.0 13.0 0.00 0.00 0.00 26 1010.1
20260505012032 74 5 8.0 15.0 0.00 0.00 0.00 26 1010.1
20260505011535 75 19 9.0 16.0 0.00 0.00 0.00 26 1010.1
20260505011019 75 13 9.0 16.0 0.00 0.00 0.00 25 1010.1
20260505010532 75 360 5.0 14.0 0.00 0.00 0.00 26 1010.0
20260505010026 75 355 4.0 15.0 0.00 0.00 0.00 27 1010.0
20260505005534 75 18 7.0 15.0 0.00 0.00 0.00 26 1010.1
20260505005024 75 28 7.0 15.0 0.00 0.00 0.00 27 1010.1
20260505004534 75 5 8.0 15.0 0.00 0.00 0.00 25 1010.1
20260505004031 75 11 8.0 17.0 0.00 0.00 0.00 26 1010.1
20260505003520 75 9 9.0 17.0 0.00 0.00 0.00 27 1010.2
20260505003038 75 22 7.0 16.0 0.00 0.00 0.00 28 1010.3
20260505002526 75 360 9.0 16.0 0.00 0.00 0.00 26 1010.2
20260505002019 75 12 9.0 15.0 0.00 0.00 0.00 25 1010.2
20260505001533 75 22 6.0 14.0 0.00 0.00 0.00 28 1010.3
20260505001031 75 9 10.0 14.0 0.00 0.00 0.00 26 1010.2
20260505000534 75 32 6.0 14.0 0.00 0.00 0.00 25 1010.3
20260505000032 75 27 7.0 17.0 0.00 0.00 0.00 26 1010.4
20260504235520 75 309 10.0 17.0 0.00 0.00 0.00 26 1010.3
20260504235030 75 355 9.0 15.0 0.00 0.00 0.00 26 1010.3
20260504234527 75 313 8.0 15.0 0.00 0.00 0.00 27 1010.4
20260504234040 75 31 6.0 18.0 0.00 0.00 0.00 26 1010.4
20260504233525 76 42 11.0 18.0 0.00 0.00 0.00 26 1010.4
20260504233022 76 13 9.0 15.0 0.00 0.00 0.00 27 1010.4
20260504232534 76 5 6.0 16.0 0.00 0.00 0.00 26 1010.4
20260504232021 77 360 10.0 14.0 0.00 0.00 0.00 27 1010.4
20260504231518 76 360 4.0 13.0 0.00 0.00 0.00 28 1010.4
20260504231026 76 355 8.0 13.0 0.00 0.00 0.00 27 1010.3
20260504230519 76 19 7.0 19.0 0.00 0.00 0.00 28 1010.3
20260504230036 75 22 8.0 19.0 0.00 0.00 0.00 27 1010.4
20260504225529 74 329 3.0 19.0 0.00 0.00 0.00 29 1010.5
20260504225034 75 5 11.0 19.0 0.00 0.00 0.00 28 1010.6
20260504224531 76 343 10.0 17.0 0.00 0.00 0.00 27 1010.5
20260504224022 76 292 8.0 17.0 0.00 0.00 0.00 27 1010.4
20260504223530 76 327 9.0 17.0 0.00 0.00 0.00 26 1010.5
20260504223034 76 324 8.0 17.0 0.00 0.00 0.00 26 1010.5
20260504222536 76 360 12.0 16.0 0.00 0.00 0.00 25 1010.5
20260504222025 76 310 7.0 14.0 0.00 0.00 0.00 26 1010.4
20260504221520 76 320 6.0 12.0 0.00 0.00 0.00 26 1010.4
20260504221031 76 14 8.0 12.0 0.00 0.00 0.00 25 1010.4
20260504220524 76 331 6.0 12.0 0.00 0.00 0.00 26 1010.4
20260504220047 76 287 5.0 13.0 0.00 0.00 0.00 27 1010.4
20260504215526 76 351 6.0 13.0 0.00 0.00 0.00 28 1010.4
20260504215036 75 35 6.0 15.0 0.00 0.00 0.00 28 1010.6
20260504214530 75 360 8.0 16.0 0.00 0.00 0.00 30 1010.6
20260504214022 75 355 6.0 16.0 0.00 0.00 0.00 31 1010.7
20260504213530 75 5 8.0 18.0 0.00 0.00 0.00 30 1010.7
20260504213029 75 332 11.0 19.0 0.00 0.00 0.00 30 1010.7
20260504212537 75 343 11.0 19.0 0.00 0.00 0.00 29 1010.7
20260504212027 75 333 8.0 15.0 0.00 0.00 0.00 31 1010.6
20260504211523 75 16 9.0 15.0 0.00 0.00 0.00 30 1010.7
20260504211031 75 336 8.0 15.0 0.00 0.00 0.00 30 1010.7
20260504210524 75 5 6.0 13.0 0.00 0.00 0.00 31 1010.7
20260504210020 75 360 8.0 16.0 0.00 0.00 0.00 31 1010.6
20260504205529 75 355 8.0 14.0 0.00 0.00 0.00 32 1010.8
20260504205020 75 5 6.0 12.0 0.00 0.00 0.00 32 1010.7
20260504204522 75 336 7.0 14.0 0.00 0.00 0.00 32 1010.8
20260504204028 75 346 8.0 14.0 0.00 0.00 0.00 31 1010.7
20260504203540 75 5 7.0 13.0 0.00 0.00 0.00 32 1010.7
20260504203034 75 338 3.0 13.0 0.00 0.00 0.00 32 1010.8
20260504202522 75 321 4.0 13.0 0.00 0.00 0.00 34 1010.8
20260504202035 74 338 7.0 13.0 0.00 0.00 0.00 33 1010.8
20260504201532 75 63 4.0 12.0 0.00 0.00 0.00 34 1010.7
20260504201018 74 320 7.0 12.0 0.00 0.00 0.00 34 1010.7
20260504200528 74 294 6.0 11.0 0.00 0.00 0.00 34 1010.8
20260504200024 74 346 6.0 11.0 0.00 0.00 0.00 34 1010.8
20260504195531 74 284 6.0 12.0 0.00 0.00 0.00 34 1010.9
20260504195022 74 304 7.0 12.0 0.00 0.00 0.00 35 1010.9
20260504194520 73 345 6.0 12.0 0.00 0.00 0.00 35 1010.9
20260504194028 73 5 2.0 10.0 0.00 0.00 0.00 36 1011.0
20260504193522 73 20 5.0 10.0 0.00 0.00 0.00 36 1011.0
20260504193018 73 271 2.0 9.0 0.00 0.00 0.00 36 1011.0
20260504192530 73 355 4.0 11.0 0.00 0.00 0.00 35 1011.1
20260504192020 73 340 6.0 12.0 0.00 0.00 0.00 35 1011.1
20260504191540 72 10 7.0 12.0 0.00 0.00 0.00 36 1011.2
20260504191026 73 300 6.0 12.0 0.00 0.00 0.00 37 1011.2
20260504190535 72 315 8.0 11.0 0.00 0.00 0.00 36 1011.2
20260504190036 72 336 6.0 14.0 0.00 0.00 0.00 38 1011.2
20260504185518 72 338 8.0 14.0 0.00 0.00 0.00 37 1011.3
20260504185029 72 328 7.0 12.0 0.00 0.00 0.00 37 1011.3
20260504184533 71 311 5.0 10.0 0.00 0.00 0.00 37 1011.3
20260504184032 71 342 4.0 12.0 0.00 0.00 0.00 37 1011.3
20260504183524 71 355 6.0 12.0 0.00 0.00 0.00 37 1011.3
20260504183019 72 355 4.0 9.0 0.00 0.00 0.00 38 1011.4
20260504182538 71 355 4.0 9.0 0.00 0.00 0.00 38 1011.4
20260504182022 71 315 4.0 9.0 0.00 0.00 0.00 39 1011.5
20260504181522 71 285 4.0 8.0 0.00 0.00 0.00 39 1011.4
20260504181033 71 339 4.0 8.0 0.00 0.00 0.00 39 1011.4
20260504180542 70 298 1.0 10.0 0.00 0.00 0.00 40 1011.4
20260504180032 70 345 5.0 10.0 0.00 0.00 0.00 41 1011.4
20260504175522 70 315 3.0 9.0 0.00 0.00 0.00 40 1011.3
20260504175031 70 340 3.0 8.0 0.00 0.00 0.00 41 1011.5
20260504174526 70 11 2.0 10.0 0.00 0.00 0.00 43 1011.4
20260504174038 69 332 3.0 10.0 0.00 0.00 0.00 42 1011.5
20260504173526 68 339 3.0 5.0 0.00 0.00 0.00 45 1011.6